| time (UTC) | temp C | wind direction | speed KPH | gust KPH | rain 1hr cm | rain 24hr cm | rain mn cm | humidity % | barometer mb |
| 20260507080404 | 0 | 140 | 4.8 | 11.3 | 0.00 | 0.00 | 0.00 | 83 | 1018.5 |
| 20260507075905 | 0 | 126 | 3.2 | 4.8 | 0.00 | 0.00 | 0.00 | 84 | 1018.5 |
| 20260507074904 | 0 | 108 | 1.6 | 3.2 | 0.00 | 0.00 | 0.00 | 83 | 1018.4 |
| 20260507073905 | 0 | 108 | 0.0 | 0.0 | 0.00 | 0.00 | 0.00 | 83 | 1018.3 |
| 20260507072905 | 0 | 108 | 0.0 | 0.0 | 0.00 | 0.00 | 0.00 | 82 | 1018.1 |
| 20260507071904 | 0 | 108 | 0.0 | 4.8 | 0.00 | 0.00 | 0.00 | 83 | 1018.0 |
| 20260507071404 | 0 | 108 | 0.0 | 4.8 | 0.00 | 0.00 | 0.00 | 83 | 1017.9 |
| 20260507070904 | 0 | 105 | 3.2 | 4.8 | 0.00 | 0.00 | 0.00 | 83 | 1017.8 |
| 20260507070404 | 0 | 82 | 1.6 | 3.2 | 0.00 | 0.00 | 0.00 | 82 | 1017.8 |
| 20260507065905 | 0 | 82 | 0.0 | 0.0 | 0.00 | 0.00 | 0.00 | 82 | 1017.8 |
| 20260507065404 | 0 | 82 | 0.0 | 1.6 | 0.00 | 0.00 | 0.00 | 82 | 1017.7 |
| 20260507061904 | 0 | 82 | 0.0 | 0.0 | 0.00 | 0.00 | 0.00 | 82 | 1017.4 |
| 20260507061405 | 1 | 82 | 0.0 | 0.0 | 0.00 | 0.00 | 0.00 | 82 | 1017.4 |
| 20260507060905 | 1 | 82 | 0.0 | 0.0 | 0.00 | 0.00 | 0.00 | 81 | 1017.3 |
| 20260507055405 | 1 | 82 | 0.0 | 0.0 | 0.00 | 0.00 | 0.00 | 81 | 1017.1 |
| 20260507054904 | 1 | 82 | 0.0 | 0.0 | 0.00 | 0.00 | 0.00 | 80 | 1017.0 |
| 20260507054404 | 1 | 82 | 0.0 | 0.0 | 0.00 | 0.00 | 0.00 | 80 | 1017.0 |
| 20260507053904 | 1 | 82 | 0.0 | 0.0 | 0.00 | 0.00 | 0.00 | 79 | 1016.9 |
| 20260507053405 | 1 | 82 | 0.0 | 0.0 | 0.00 | 0.00 | 0.00 | 79 | 1016.9 |
| 20260507052904 | 2 | 82 | 0.0 | 0.0 | 0.00 | 0.00 | 0.00 | 78 | 1016.9 |
| 20260507051405 | 2 | 82 | 0.0 | 0.0 | 0.00 | 0.00 | 0.00 | 77 | 1016.7 |
| 20260507050905 | 2 | 82 | 0.0 | 3.2 | 0.00 | 0.00 | 0.00 | 77 | 1016.7 |
| 20260507050404 | 2 | 82 | 0.0 | 3.2 | 0.00 | 0.00 | 0.00 | 76 | 1016.7 |
| 20260507045905 | 3 | 82 | 1.6 | 3.2 | 0.00 | 0.00 | 0.00 | 75 | 1016.6 |
| 20260507045404 | 3 | 82 | 0.0 | 0.0 | 0.00 | 0.00 | 0.00 | 75 | 1016.5 |
| 20260507044904 | 3 | 82 | 0.0 | 0.0 | 0.00 | 0.00 | 0.00 | 74 | 1016.5 |
| 20260507044404 | 3 | 82 | 0.0 | 0.0 | 0.00 | 0.00 | 0.00 | 73 | 1016.3 |
| 20260507035905 | 5 | 82 | 0.0 | 0.0 | 0.00 | 0.00 | 0.00 | 65 | 1015.3 |
| 20260507034904 | 6 | 82 | 0.0 | 0.0 | 0.00 | 0.00 | 0.00 | 64 | 1015.1 |
| 20260507032904 | 7 | 82 | 0.0 | 3.2 | 0.00 | 0.00 | 0.00 | 61 | 1014.8 |
| 20260507032404 | 7 | 70 | 1.6 | 3.2 | 0.00 | 0.00 | 0.00 | 59 | 1014.7 |
| 20260507031404 | 7 | 62 | 1.6 | 3.2 | 0.00 | 0.00 | 0.00 | 55 | 1014.5 |
| 20260507030405 | 8 | 62 | 0.0 | 4.8 | 0.00 | 0.00 | 0.00 | 54 | 1014.3 |
| 20260507024404 | 9 | 215 | 0.0 | 4.8 | 0.00 | 0.00 | 0.00 | 48 | 1013.6 |
| 20260507023405 | 10 | 199 | 1.6 | 4.8 | 0.00 | 0.00 | 0.00 | 45 | 1013.4 |
| 20260507022904 | 10 | 215 | 0.0 | 3.2 | 0.00 | 0.00 | 0.00 | 45 | 1013.3 |
| 20260507021904 | 10 | 208 | 1.6 | 4.8 | 0.00 | 0.00 | 0.00 | 43 | 1013.1 |
| 20260507021404 | 10 | 207 | 3.2 | 4.8 | 0.00 | 0.00 | 0.00 | 42 | 1013.1 |
| 20260507020904 | 11 | 197 | 1.6 | 4.8 | 0.00 | 0.00 | 0.00 | 42 | 1013.0 |
| 20260507020404 | 11 | 238 | 1.6 | 4.8 | 0.00 | 0.00 | 0.00 | 41 | 1013.0 |
| 20260507015904 | 11 | 244 | 1.6 | 16.1 | 0.00 | 0.00 | 0.00 | 40 | 1012.8 |
| 20260507014405 | 12 | 267 | 3.2 | 11.3 | 0.00 | 0.00 | 0.00 | 37 | 1012.6 |
| 20260507013404 | 12 | 203 | 4.8 | 12.9 | 0.00 | 0.00 | 0.00 | 35 | 1012.6 |
| 20260507003904 | 13 | 0 | 3.2 | 14.5 | 0.00 | 0.00 | 0.00 | 36 | 1011.7 |
| 20260507000904 | 14 | 223 | 4.8 | 14.5 | 0.00 | 0.00 | 0.00 | 36 | 1010.8 |
| 20260506235904 | 14 | 227 | 3.2 | 19.3 | 0.00 | 0.00 | 0.00 | 39 | 1010.6 |
| 20260506234904 | 14 | 232 | 4.8 | 22.5 | 0.00 | 0.00 | 0.00 | 36 | 1010.4 |
| 20260506234404 | 14 | 244 | 4.8 | 22.5 | 0.00 | 0.00 | 0.00 | 35 | 1010.4 |
| 20260506233904 | 14 | 243 | 6.4 | 12.9 | 0.00 | 0.00 | 0.00 | 36 | 1010.3 |
| 20260506233404 | 13 | 208 | 4.8 | 11.3 | 0.00 | 0.00 | 0.00 | 43 | 1010.2 |
| 20260506231905 | 13 | 188 | 0.0 | 4.8 | 0.00 | 0.00 | 0.00 | 45 | 1010.2 |
| 20260506225404 | 13 | 177 | 3.2 | 9.7 | 0.00 | 0.00 | 0.00 | 51 | 1010.4 |
| 20260506224904 | 12 | 217 | 1.6 | 11.3 | 0.00 | 0.00 | 0.00 | 49 | 1010.4 |
| 20260506224403 | 12 | 288 | 4.8 | 19.3 | 0.00 | 0.00 | 0.00 | 53 | 1010.4 |
| 20260506223905 | 11 | 245 | 1.6 | 19.3 | 0.00 | 0.00 | 0.00 | 57 | 1010.5 |
| 20260506223404 | 11 | 248 | 8.0 | 19.3 | 0.00 | 0.00 | 0.00 | 57 | 1010.8 |
| 20260506221904 | 11 | 322 | 1.6 | 9.7 | 0.00 | 0.00 | 0.00 | 61 | 1010.5 |
| 20260506220904 | 12 | 0 | 3.2 | 9.7 | 0.00 | 0.00 | 0.00 | 60 | 1010.4 |
| 20260506220404 | 13 | 0 | 3.2 | 9.7 | 0.00 | 0.00 | 0.00 | 52 | 1010.2 |
| 20260506214404 | 15 | 217 | 4.8 | 19.3 | 0.00 | 0.00 | 0.00 | 39 | 1009.2 |
| 20260506213904 | 14 | 175 | 4.8 | 19.3 | 0.00 | 0.00 | 0.00 | 39 | 1009.1 |
| 20260506213404 | 14 | 204 | 8.0 | 19.3 | 0.00 | 0.00 | 0.00 | 40 | 1009.1 |
| 20260506212904 | 14 | 183 | 8.0 | 19.3 | 0.00 | 0.00 | 0.00 | 38 | 1009.1 |
| 20260506211404 | 15 | 182 | 9.7 | 22.5 | 0.00 | 0.00 | 0.00 | 38 | 1008.8 |
| 20260506205904 | 14 | 179 | 3.2 | 14.5 | 0.00 | 0.00 | 0.00 | 40 | 1008.9 |
| 20260506204904 | 14 | 200 | 3.2 | 20.9 | 0.00 | 0.00 | 0.00 | 40 | 1009.2 |
| 20260506204404 | 14 | 181 | 6.4 | 20.9 | 0.00 | 0.00 | 0.00 | 41 | 1008.9 |
| 20260506203904 | 14 | 200 | 3.2 | 12.9 | 0.00 | 0.00 | 0.00 | 42 | 1009.2 |
| 20260506202404 | 13 | 192 | 1.6 | 9.7 | 0.00 | 0.00 | 0.00 | 43 | 1009.3 |
| 20260506201904 | 13 | 320 | 1.6 | 12.9 | 0.00 | 0.00 | 0.00 | 50 | 1009.4 |
| 20260506201404 | 13 | 203 | 3.2 | 14.5 | 0.00 | 0.00 | 0.00 | 43 | 1009.5 |
| 20260506195904 | 13 | 193 | 9.7 | 19.3 | 0.00 | 0.00 | 0.00 | 41 | 1009.5 |
| 20260506194904 | 13 | 205 | 8.0 | 20.9 | 0.00 | 0.00 | 0.00 | 42 | 1009.4 |
| 20260506193905 | 14 | 231 | 8.0 | 20.9 | 0.00 | 0.00 | 0.00 | 41 | 1009.5 |
| 20260506193404 | 13 | 186 | 8.0 | 19.3 | 0.00 | 0.00 | 0.00 | 40 | 1009.4 |
| 20260506191904 | 13 | 205 | 4.8 | 16.1 | 0.00 | 0.00 | 0.00 | 45 | 1009.4 |
| 20260506185404 | 12 | 0 | 4.8 | 19.3 | 0.00 | 0.00 | 0.00 | 51 | 1009.6 |
| 20260506184904 | 12 | 0 | 4.8 | 19.3 | 0.00 | 0.00 | 0.00 | 51 | 1009.7 |
| 20260506183905 | 13 | 208 | 6.4 | 19.3 | 0.00 | 0.00 | 0.00 | 47 | 1009.7 |
| 20260506175906 | 12 | 211 | 9.7 | 20.9 | 0.00 | 0.00 | 0.00 | 53 | 1010.0 |
| 20260506173904 | 11 | 183 | 8.0 | 20.9 | 0.00 | 0.00 | 0.00 | 56 | 1010.1 |
| 20260506173404 | 11 | 219 | 4.8 | 20.9 | 0.00 | 0.00 | 0.00 | 59 | 1010.1 |
| 20260506172404 | 11 | 161 | 4.8 | 20.9 | 0.00 | 0.00 | 0.00 | 58 | 1010.1 |
| 20260506171903 | 11 | 106 | 8.0 | 20.9 | 0.00 | 0.00 | 0.00 | 57 | 1010.1 |
| 20260506170904 | 11 | 245 | 4.8 | 16.1 | 0.00 | 0.00 | 0.00 | 59 | 1010.2 |
| 20260506165404 | 10 | 143 | 8.0 | 14.5 | 0.00 | 0.00 | 0.00 | 61 | 1010.0 |
| 20260506163904 | 10 | 139 | 8.0 | 19.3 | 0.00 | 0.00 | 0.00 | 61 | 1009.8 |
| 20260506162904 | 9 | 130 | 6.4 | 19.3 | 0.00 | 0.00 | 0.00 | 66 | 1009.9 |
| 20260506161404 | 8 | 0 | 3.2 | 11.3 | 0.00 | 0.00 | 0.00 | 68 | 1009.9 |
| 20260506160904 | 8 | 0 | 3.2 | 11.3 | 0.00 | 0.00 | 0.00 | 67 | 1009.9 |
| 20260506154904 | 8 | 133 | 3.2 | 16.1 | 0.00 | 0.00 | 0.00 | 69 | 1010.1 |
| 20260506154404 | 8 | 206 | 3.2 | 12.9 | 0.00 | 0.00 | 0.00 | 69 | 1010.1 |
| 20260506153904 | 7 | 0 | 4.8 | 12.9 | 0.00 | 0.00 | 0.00 | 70 | 1010.1 |
| 20260506152405 | 8 | 167 | 4.8 | 11.3 | 0.00 | 0.00 | 0.00 | 70 | 1010.2 |
| 20260506150404 | 7 | 0 | 4.8 | 14.5 | 0.00 | 0.00 | 0.00 | 75 | 1010.0 |
| 20260506142404 | 5 | 0 | 3.2 | 14.5 | 0.00 | 0.00 | 0.00 | 81 | 1010.0 |
| 20260506141904 | 5 | 148 | 4.8 | 14.5 | 0.00 | 0.00 | 0.00 | 80 | 1010.0 |
| 20260506141404 | 5 | 136 | 3.2 | 11.3 | 0.00 | 0.00 | 0.00 | 81 | 1010.1 |
| 20260506135904 | 5 | 106 | 3.2 | 8.0 | 0.00 | 0.00 | 0.00 | 82 | 1010.2 |
| 20260506135404 | 5 | 108 | 1.6 | 8.0 | 0.00 | 0.00 | 0.00 | 83 | 1010.1 |
| 20260506133905 | 4 | 146 | 0.0 | 4.8 | 0.00 | 0.00 | 0.00 | 83 | 1010.0 |
| 20260506133404 | 4 | 146 | 1.6 | 8.0 | 0.00 | 0.00 | 0.00 | 84 | 1009.9 |
| 20260506132904 | 3 | 146 | 1.6 | 8.0 | 0.00 | 0.00 | 0.00 | 84 | 1009.8 |
| 20260506131403 | 3 | 142 | 1.6 | 4.8 | 0.00 | 0.00 | 0.00 | 85 | 1009.5 |
| 20260506125903 | 3 | 141 | 3.2 | 8.0 | 0.00 | 0.00 | 0.00 | 85 | 1009.4 |
| 20260506125404 | 3 | 143 | 4.8 | 8.0 | 0.00 | 0.00 | 0.00 | 85 | 1009.4 |
| 20260506124403 | 2 | 153 | 3.2 | 8.0 | 0.00 | 0.00 | 0.00 | 86 | 1009.2 |
| 20260506123904 | 2 | 138 | 3.2 | 8.0 | 0.00 | 0.00 | 0.00 | 86 | 1008.9 |
| 20260506123405 | 2 | 139 | 1.6 | 9.7 | 0.00 | 0.00 | 0.00 | 86 | 1009.1 |
| 20260506122404 | 2 | 144 | 3.2 | 11.3 | 0.00 | 0.00 | 0.00 | 86 | 1009.1 |
| 20260506120904 | 2 | 105 | 0.0 | 1.6 | 0.00 | 0.00 | 0.00 | 86 | 1009.0 |
| 20260506120404 | 2 | 105 | 0.0 | 1.6 | 0.00 | 0.00 | 0.00 | 86 | 1009.1 |
| 20260506114404 | 2 | 138 | 3.2 | 8.0 | 0.00 | 0.00 | 0.00 | 86 | 1008.7 |
| 20260506112904 | 2 | 154 | 1.6 | 4.8 | 0.00 | 0.00 | 0.00 | 86 | 1008.5 |
| 20260506105903 | 1 | 138 | 3.2 | 11.3 | 0.00 | 0.00 | 0.00 | 87 | 1007.9 |
| 20260506105404 | 2 | 142 | 8.0 | 9.7 | 0.00 | 0.00 | 0.00 | 87 | 1007.9 |
| 20260506104904 | 2 | 141 | 1.6 | 4.8 | 0.00 | 0.00 | 0.00 | 86 | 1008.2 |
| 20260506104404 | 2 | 141 | 0.0 | 3.2 | 0.00 | 0.00 | 0.00 | 87 | 1008.2 |
| 20260506103904 | 2 | 141 | 1.6 | 3.2 | 0.00 | 0.00 | 0.00 | 87 | 1008.1 |
| 20260506102404 | 2 | 141 | 1.6 | 3.2 | 0.00 | 0.00 | 0.00 | 86 | 1007.9 |
| 20260506101904 | 2 | 141 | 0.0 | 0.0 | 0.00 | 0.00 | 0.00 | 86 | 1007.9 |
| 20260506101404 | 2 | 141 | 0.0 | 1.6 | 0.00 | 0.00 | 0.00 | 86 | 1007.9 |
| 20260506100905 | 2 | 141 | 0.0 | 1.6 | 0.00 | 0.00 | 0.00 | 86 | 1008.0 |
| 20260506100404 | 2 | 141 | 1.6 | 3.2 | 0.00 | 0.00 | 0.00 | 86 | 1008.0 |
| 20260506095403 | 2 | 141 | 0.0 | 1.6 | 0.00 | 0.00 | 0.00 | 86 | 1008.0 |
| 20260506094904 | 2 | 141 | 0.0 | 1.6 | 0.00 | 0.00 | 0.00 | 86 | 1008.0 |
| 20260506094403 | 2 | 141 | 0.0 | 3.2 | 0.00 | 0.00 | 0.00 | 86 | 1007.9 |
| 20260506093903 | 2 | 141 | 1.6 | 4.8 | 0.00 | 0.00 | 0.00 | 86 | 1008.0 |
| 20260506093404 | 2 | 141 | 0.0 | 4.8 | 0.00 | 0.00 | 0.00 | 86 | 1008.0 |
| 20260506092404 | 2 | 140 | 3.2 | 4.8 | 0.00 | 0.00 | 0.00 | 86 | 1007.9 |
| 20260506091403 | 2 | 148 | 4.8 | 8.0 | 0.00 | 0.00 | 0.00 | 86 | 1007.8 |
| 20260506090904 | 2 | 153 | 3.2 | 4.8 | 0.00 | 0.00 | 0.00 | 86 | 1007.8 |
| 20260506085904 | 3 | 146 | 1.6 | 4.8 | 0.00 | 0.00 | 0.00 | 86 | 1007.8 |
| 20260506081904 | 3 | 144 | 1.6 | 4.8 | 0.00 | 0.00 | 0.00 | 86 | 1007.2 |
| 20260506081404 | 3 | 144 | 3.2 | 4.8 | 0.00 | 0.00 | 0.00 | 86 | 1007.2 |
| 20260506080904 | 3 | 146 | 3.2 | 4.8 | 0.00 | 0.00 | 0.00 | 86 | 1007.2 |